Wind_Speed
95 96 101 88 84 83 80 79 71 70 64 63 59 58 55 45 49 36 35 33 31 34 26 27 33 33 35 36 29 27 29 32 31 31 31 36 39 42 43 43 46 50 48 48
99 91 99 99 91 84 80 81 79 75 74 71 62 65 57 50 50 49 35 34 34 34 34 37 35 36 37 38 33 30 33 30 31 34 36 39 44 48 46 45 48 50 55 59
107 100 96 90 92 95 83 75 75 74 75 64 62 58 56 57 51 49 49 46 46 38 42 39 39 38 35 39 37 34 34 33 35 37 38 45 48 49 46 47 45 49 57 61
110 107 99 92 84 90 87 87 78 79 75 75 70 52 58 61 61 58 46 50 51 50 46 44 45 42 42 40 41 42 37 36 42 40 41 48 46 45 44 49 51 53 61 61
109 105 106 101 89 88 97 92 90 84 79 73 66 56 60 65 57 51 51 49 47 49 52 45 49 52 50 44 43 43 38 42 46 49 50 51 51 47 56 56 55 56 62 69
122 107 105 95 103 103 100 93 93 93 82 77 64 57 57 57 52 54 53 53 51 51 51 52 51 48 46 50 51 49 53 53 52 55 54 52 53 55 60 62 60 62 67 74
120 116 113 108 93 95 99 101 97 99 88 78 76 68 57 58 59 57 54 51 54 59 59 55 55 56 53 53 53 55 58 59 58 55 55 55 59 65 63 67 66 72 75 80
116 116 113 115 116 104 94 91 85 87 80 79 79 73 72 68 62 72 70 71 65 63 62 66 65 59 56 59 59 62 65 61 58 58 61 68 68 72 71 69 72 80 83 82
113 117 115 114 115 108 102 102 96 92 89 92 88 91 79 72 74 71 72 72 71 71 68 68 69 66 61 62 64 62 58 58 57 60 65 69 72 73 77 79 81 85 85 84
116 113 112 115 115 110 103 100 98 97 89 85 85 87 81 82 82 81 82 76 76 76 74 72 72 70 69 68 62 61 64 72 73 73 75 76 76 76 80 88 89 89 90 93
120 117 116 119 117 112 106 106 104 97 90 84 83 83 80 81 85 87 84 80 78 76 74 76 77 73 69 72 73 72 77 78 79 78 80 83 83 84 87 91 91 92 94 94
119 123 126 126 125 115 109 110 113 108 98 91 85 83 79 84 84 84 85 91 91 88 90 87 80 72 72 77 79 83 82 83 80 80 80 81 83 89 92 93 95 101 97 99
120 120 123 122 117 115 115 114 115 107 103 100 99 90 89 91 95 95 96 97 96 95 86 77 76 78 83 84 82 85 85 86 86 87 89 90 92 96 95 99 105 101 102 106
123 124 124 119 115 116 112 109 109 107 109 104 101 95 92 94 97 97 97 96 95 91 89 87 87 87 86 85 85 88 87 84 86 88 92 94 97 102 105 106 107 108 107 110
118 120 123 121 122 121 119 119 120 118 111 112 101 99 95 92 95 93 90 89 87 88 92 92 90 89 91 91 91 91 91 89 91 97 102 105 111 109 107 110 109 109 113 117
121 121 122 127 126 126 126 128 126 120 115 107 94 90 92 88 89 89 92 94 95 92 91 92 95 92 92 94 93 93 93 97 103 109 112 109 111 111 111 113 111 113 117 122
124 120 125 123 126 125 126 117 120 116 111 98 99 96 98 99 95 93 94 99 102 103 101 100 100 96 95 96 103 105 106 110 113 113 114 113 113 113 113 115 116 119 124 128
126 120 120 128 131 129 117 121 115 113 110 106 101 100 104 106 107 106 102 100 94 94 93 94 95 100 104 107 112 113 114 115 112 115 116 115 116 115 117 120 121 125 129 131
129 124 121 122 122 124 123 118 120 121 113 113 110 107 107 106 106 105 103 100 99 103 103 106 113 116 118 118 120 116 116 115 119 118 115 118 118 120 123 123 126 129 132 131
112 120 124 123 125 125 109 119 121 123 115 116 116 115 114 115 116 111 115 116 118 122 123 125 123 123 121 123 116 120 118 120 122 117 120 121 122 125 128 130 130 130 130 134
110 112 115 111 115 115 110 115 122 130 110 115 119 121 125 127 127 125 127 128 129 128 128 128 124 121 117 119 122 121 121 123 121 123 123 123 125 128 129 132 133 133 134 135
110 111 116 116 115 109 105 115 121 115 115 117 122 126 128 130 129 127 125 126 123 121 120 120 117 119 121 120 120 121 124 123 123 123 124 126 129 131 134 134 137 136 137 136
114 113 113 111 100 101 109 111 117 117 116 115 117 118 120 120 118 118 117 117 117 113 113 116 117 117 118 120 123 125 124 124 125 128 128 129 133 135 139 137 138 138 137 136
117 116 111 109 106 101 107 115 119 116 117 116 115 113 112 112 114 113 114 114 116 117 118 121 123 125 125 127 126 125 126 127 129 132 134 137 138 136 135 134 134 136 138 139
110 108 107 109 109 108 109 106 106 115 120 119 120 115 116 117 118 117 118 119 121 123 122 120 122 124 123 125 127 128 130 132 135 136 136 134 133 134 133 132 133 136 136 139
110 111 111 108 107 106 109 111 113 114 117 120 120 122 121 121 120 118 120 123 123 122 122 120 121 124 124 125 128 129 133 132 132 130 127 128 126 129 132 134 132 132 134 139
Wind_Direction
211 215 212 214 217 216 220 216 219 220 222 226 226 231 228 235 239 234 229 240 246 253 260 256 263 273 284 280 273 287 291 295 298 301 303 315 320 319 319 324 323 326 329 330
210 208 213 215 217 214 214 221 217 219 223 225 229 229 225 235 232 235 230 242 249 259 268 255 262 270 278 283 267 290 282 285 297 297 300 308 311 314 313 319 317 319 323 325
212 215 216 217 220 215 216 217 220 219 223 223 221 226 233 234 236 238 244 246 258 261 256 255 266 272 275 280 267 287 284 278 296 292 294 303 304 307 305 312 308 311 317 319
209 207 208 213 217 221 218 221 222 225 225 224 226 233 233 232 244 249 249 253 254 256 265 261 260 268 267 270 268 280 274 278 292 288 291 298 297 302 302 308 308 307 313 314
209 213 215 217 217 219 224 229 229 225 225 226 219 230 230 236 238 244 251 249 253 260 258 257 268 266 271 266 267 275 267 282 287 290 292 293 290 291 303 305 306 304 309 313
213 214 215 216 220 223 225 228 229 226 222 217 215 226 229 226 229 239 245 247 255 256 262 260 258 260 267 263 268 272 277 279 284 288 290 288 288 290 297 300 301 304 307 312
216 219 215 217 214 221 225 229 231 228 223 222 222 226 240 238 236 237 244 252 253 253 255 263 262 264 268 269 274 276 280 281 283 284 284 281 283 296 298 300 299 303 304 308
216 214 218 223 224 228 228 227 229 227 229 228 227 227 237 241 245 245 248 250 250 254 254 256 262 268 272 273 276 279 279 277 279 282 281 285 286 290 295 299 299 302 304 307
214 213 217 218 222 223 222 225 231 235 233 235 238 235 236 242 242 248 248 249 254 257 258 262 263 265 271 274 277 277 277 281 275 282 288 285 286 289 294 295 297 300 302 304
211 212 215 220 219 219 224 229 231 235 238 240 237 235 245 246 245 250 252 252 254 262 264 265 264 265 269 272 272 273 277 287 284 285 286 290 286 289 290 293 296 298 301 303
211 217 219 219 221 225 228 230 237 236 234 236 237 240 243 245 247 249 252 255 256 259 263 261 262 268 271 270 270 272 281 285 287 285 285 286 288 290 292 293 296 299 301 303
215 217 217 221 223 226 231 232 229 233 236 238 237 240 241 241 247 250 253 258 261 261 267 264 266 266 271 276 272 281 282 285 283 284 287 287 290 291 293 293 295 298 299 299
214 215 218 220 226 230 227 228 230 233 235 235 240 242 239 246 250 255 256 258 258 260 260 259 259 267 275 275 276 278 280 282 280 282 287 289 290 292 292 296 300 296 297 299
213 215 220 225 225 223 224 227 230 236 239 241 241 241 245 247 249 253 256 257 258 258 256 259 265 271 272 270 275 278 276 277 279 282 285 288 291 293 295 297 296 294 295 298
214 216 218 219 221 225 226 228 233 236 236 236 239 240 241 246 250 251 254 257 260 262 259 262 266 269 273 274 276 273 272 275 279 283 287 289 294 295 293 294 294 292 295 297
216 217 220 224 224 227 230 232 235 234 235 239 240 243 248 249 244 248 251 255 257 260 262 264 270 273 273 272 270 272 275 277 280 283 289 290 293 292 291 292 292 292 294 296
218 219 221 223 224 227 228 230 234 235 235 233 243 245 244 245 244 248 253 257 261 264 265 268 269 272 267 267 273 274 275 279 283 285 287 287 290 288 288 290 291 292 293 294
218 219 221 224 225 226 228 229 231 233 234 241 241 242 243 246 247 248 254 255 258 259 258 258 261 263 264 269 276 275 279 282 282 286 285 286 289 286 288 289 290 291 292 294
223 220 222 225 227 229 229 231 233 235 237 239 240 239 241 243 245 246 249 250 250 251 254 259 266 269 271 274 275 275 279 281 284 284 283 287 287 285 287 287 288 289 290 293
223 227 226 227 229 231 231 233 236 237 236 238 237 238 239 242 245 246 247 247 251 257 262 264 267 270 272 275 273 278 278 281 282 280 282 284 283 284 285 286 289 290 291 292
222 223 226 228 229 228 228 234 237 240 238 238 241 240 241 244 247 247 251 255 259 261 264 268 270 271 270 273 275 276 276 279 278 279 280 281 281 283 284 287 289 290 291 292
222 224 227 226 229 227 228 233 237 237 238 239 241 243 245 248 251 255 256 259 261 263 264 266 266 268 272 271 273 274 276 276 276 277 278 280 281 284 286 286 288 289 289 290
225 226 228 229 227 226 227 230 235 238 239 241 243 246 250 251 252 253 254 256 258 260 261 264 266 267 269 270 272 273 273 275 276 277 279 281 282 283 285 286 289 290 291 291
232 231 231 234 234 234 233 233 234 238 239 240 242 245 247 250 253 254 255 257 258 259 261 263 265 267 269 271 272 273 274 275 277 278 279 281 283 283 285 288 289 290 293 293
231 232 235 236 235 237 237 235 238 240 241 243 245 246 248 250 252 254 257 258 259 260 262 264 266 267 268 270 271 272 274 275 278 280 282 283 285 285 287 288 289 291 293 293
230 233 236 237 237 238 240 242 243 243 244 245 248 249 251 253 254 256 258 260 261 263 265 266 267 270 271 272 273 274 276 278 280 282 282 283 284 285 287 290 290 291 291 291
Height
10689 10696 10717 10731 10744 10755 10761 10771 10781 10791 10802 10808 10814 10820 10827 10835 10838 10839 10842 10845 10847 10849 10852 10853 10855 10856 10856 10855 10855 10856 10853 10852 10851 10851 10850 10850 10848 10846 10844 10841 10838 10836 10834 10832
10671 10694 10706 10719 10729 10741 10750 10760 10769 10780 10788 10796 10804 10810 10820 10826 10829 10833 10835 10838 10839 10843 10846 10846 10847 10848 10849 10849 10849 10848 10848 10847 10846 10845 10844 10843 10842 10840 10837 10835 10832 10828 10824 10822
10672 10685 10692 10702 10715 10730 10740 10752 10763 10772 10778 10786 10793 10802 10813 10817 10822 10825 10828 10831 10832 10834 10837 10839 10841 10842 10842 10843 10843 10842 10841 10841 10841 10838 10837 10836 10835 10834 10830 10827 10824 10821 10817 10813
10650 10660 10673 10689 10704 10719 10731 10743 10750 10756 10764 10776 10785 10795 10802 10808 10812 10818 10823 10822 10823 10824 10826 10831 10832 10833 10833 10835 10836 10836 10834 10831 10831 10831 10830 10828 10826 10824 10822 10819 10817 10813 10809 10805
10644 10652 10668 10682 10700 10705 10716 10728 10738 10741 10750 10762 10778 10786 10796 10800 10806 10810 10811 10813 10812 10815 10816 10821 10823 10823 10824 10825 10827 10827 10827 10826 10821 10818 10819 10819 10816 10816 10812 10809 10808 10805 10801 10796
10626 10640 10653 10672 10677 10689 10699 10711 10722 10727 10737 10753 10768 10778 10785 10791 10794 10799 10802 10803 10803 10807 10807 10809 10811 10813 10815 10816 10818 10818 10819 10818 10817 10810 10808 10806 10804 10804 10801 10799 10796 10793 10789 10785
10618 10630 10647 10657 10661 10671 10687 10693 10703 10713 10731 10759 10762 10770 10776 10782 10785 10788 10788 10792 10794 10795 10796 10798 10800 10801 10803 10806 10808 10808 10808 10808 10807 10804 10800 10796 10791 10791 10789 10786 10782 10778 10774 10769
10604 10622 10636 10648 10653 10675 10685 10686 10699 10719 10737 10752 10750 10763 10770 10772 10773 10773 10777 10782 10783 10783 10784 10787 10790 10791 10793 10795 10797 10797 10797 10796 10794 10793 10790 10786 10781 10778 10776 10773 10768 10764 10759 10753
10595 10609 10618 10631 10641 10655 10666 10671 10690 10702 10713 10728 10738 10749 10756 10757 10760 10758 10762 10766 10769 10770 10773 10776 10779 10781 10782 10783 10784 10785 10785 10783 10781 10779 10777 10773 10768 10765 10763 10758 10753 10749 10744 10738
10583 10592 10605 10614 10625 10638 10650 10663 10671 10687 10702 10718 10728 10736 10747 10747 10746 10746 10746 10751 10755 10757 10762 10766 10769 10770 10770 10772 10772 10771 10770 10768 10767 10764 10761 10758 10754 10751 10748 10743 10739 10733 10727 10721
10566 10577 10589 10598 10611 10632 10645 10656 10667 10677 10689 10699 10712 10726 10731 10730 10730 10731 10730 10736 10740 10745 10749 10752 10756 10757 10758 10759 10758 10756 10754 10753 10752 10748 10746 10741 10739 10736 10732 10727 10721 10716 10709 10703
10552 10563 10572 10589 10601 10614 10631 10639 10646 10654 10675 10687 10701 10712 10716 10713 10714 10717 10719 10718 10722 10730 10734 10740 10741 10741 10742 10743 10741 10740 10740 10737 10734 10732 10728 10725 10723 10718 10714 10709 10704 10698 10691 10685
10538 10548 10558 10569 10581 10600 10614 10624 10633 10646 10654 10670 10682 10701 10698 10699 10700 10698 10699 10701 10707 10714 10721 10725 10725 10725 10725 10724 10724 10724 10722 10720 10718 10714 10711 10709 10706 10701 10696 10691 10685 10678 10671 10664
10511 10527 10544 10562 10590 10588 10600 10610 10615 10625 10636 10660 10672 10677 10680 10680 10677 10678 10682 10688 10697 10703 10707 10708 10705 10705 10706 10707 10707 10706 10704 10702 10698 10695 10694 10691 10688 10684 10678 10671 10664 10657 10651 10643
10495 10518 10531 10543 10554 10561 10574 10579 10586 10600 10625 10625 10654 10654 10658 10664 10664 10666 10675 10680 10684 10684 10684 10685 10685 10687 10689 10688 10687 10685 10683 10683 10681 10678 10676 10672 10669 10663 10656 10650 10644 10636 10630 10622
10492 10510 10517 10526 10539 10547 10557 10562 10573 10594 10603 10625 10643 10652 10652 10654 10656 10658 10656 10659 10661 10662 10664 10666 10667 10667 10666 10666 10663 10664 10666 10665 10663 10659 10656 10651 10646 10641 10634 10629 10622 10616 10608 10599
10475 10488 10495 10508 10518 10524 10529 10562 10573 10583 10592 10619 10621 10639 10628 10631 10638 10639 10640 10640 10640 10643 10648 10646 10645 10646 10643 10642 10645 10647 10646 10643 10641 10637 10634 10629 10624 10618 10613 10606 10599 10593 10584 10576
10451 10464 10472 10485 10489 10492 10547 10540 10555 10568 10581 10592 10607 10615 10614 10614 10614 10620 10624 10623 10621 10621 10622 10619 10620 10621 10623 10625 10627 10626 10624 10623 10620 10616 10612 10607 10602 10596 10591 10585 10578 10570 10562 10554
10440 10449 10458 10467 10476 10498 10523 10535 10546 10550 10564 10567 10586 10589 10587 10583 10582 10601 10600 10598 10595 10591 10593 10598 10601 10604 10609 10610 10608 10605 10603 10600 10596 10592 10588 10584 10578 10572 10565 10559 10553 10545 10537 10529
10423 10432 10441 10453 10463 10486 10541 10521 10519 10519 10541 10549 10553 10558 10557 10552 10562 10585 10568 10563 10564 10570 10580 10584 10584 10587 10588 10587 10586 10585 10579 10574 10571 10568 10565 10560 10555 10548 10540 10534 10529 10522 10514 10506
10399 10411 10423 10435 10447 10484 10501 10492 10488 10488 10550 10519 10531 10531 10527 10525 10533 10546 10546 10557 10562 10563 10562 10561 10563 10564 10565 10566 10564 10560 10556 10551 10547 10544 10540 10534 10528 10521 10514 10508 10502 10496 10488 10479
10385 10391 10402 10413 10427 10460 10478 10472 10473 10492 10490 10495 10495 10497 10504 10509 10518 10528 10537 10540 10545 10547 10543 10539 10538 10541 10541 10539 10536 10533 10529 10525 10519 10516 10512 10507 10502 10495 10488 10481 10475 10468 10460 10451
10369 10379 10389 10400 10429 10439 10447 10450 10453 10456 10467 10473 10481 10482 10486 10495 10502 10507 10514 10519 10520 10522 10521 10517 10515 10516 10516 10513 10510 10507 10503 10498 10494 10490 10486 10480 10474 10467 10461 10454 10447 10438 10430 10420
10356 10368 10373 10387 10407 10418 10427 10429 10435 10437 10445 10451 10459 10464 10469 10473 10474 10480 10484 10489 10494 10495 10493 10492 10491 10491 10489 10488 10485 10482 10478 10474 10469 10463 10457 10451 10444 10436 10430 10425 10416 10406 10397 10387
10343 10350 10360 10372 10385 10388 10398 10411 10416 10421 10425 10429 10435 10441 10445 10450 10455 10455 10454 10457 10463 10468 10469 10468 10467 10465 10463 10461 10458 10453 10450 10445 10439 10433 10428 10421 10414 10406 10398 10392 10383 10375 10365 10357
10326 10333 10340 10350 10359 10366 10376 10384 10391 10396 10402 10409 10411 10413 10418 10426 10430 10430 10432 10435 10437 10437 10439 10440 10440 10440 10437 10433 10430 10425 10421 10415 10410 10405 10397 10390 10381 10375 10369 10362 10351 10343 10334 10324